N2PUI Weather Reports


Display with metric or nautical units.
time (UTC)temp
F
wind
direction
speed
MPH
gust
MPH
rain 1hr
in
rain 24hr
in
rain mn
in
humidity
%
barometer
mb
20260906041329 57 155 0.0 0.0 0.00 0.00 0.00 95 1015.8
20260906040828 57 155 0.0 0.0 0.00 0.00 0.00 95 1015.7
20260906040324 58 157 0.0 0.0 0.00 0.00 0.00 95 1015.9
20260906035819 57 156 0.0 0.0 0.00 0.00 0.00 95 1016.1
20260906035314 58 155 0.0 0.0 0.00 0.00 0.00 95 1015.8
20260906034809 58 159 0.0 0.0 0.00 0.00 0.00 95 1015.7
20260906034304 58 180 0.0 0.0 0.00 0.00 0.00 95 1015.9
20260906033800 59 182 0.0 0.0 0.00 0.00 0.00 95 1015.9
20260906033259 59 165 0.0 0.0 0.00 0.00 0.00 95 1015.7
20260906032756 59 185 0.0 0.0 0.00 0.00 0.00 95 1015.6
20260906032256 59 189 0.0 0.0 0.00 0.00 0.00 95 1015.7
20260906031751 59 193 0.0 0.0 0.00 0.00 0.00 95 1015.8
20260906031247 59 191 0.0 0.0 0.00 0.00 0.00 95 1015.7
20260906030741 59 191 0.0 0.0 0.00 0.00 0.00 95 1015.6
20260906030236 59 190 0.0 0.0 0.00 0.00 0.00 95 1015.6
20260906025735 59 188 0.0 0.0 0.00 0.00 0.00 95 1015.7
20260906025235 59 189 0.0 0.0 0.00 0.00 0.00 95 1015.6
20260906024734 59 190 0.0 0.0 0.00 0.00 0.00 94 1015.8
20260906024228 59 191 0.0 0.0 0.00 0.00 0.00 94 1015.4
20260906023724 59 189 0.0 0.0 0.00 0.00 0.00 94 1015.5
20260906023219 59 189 0.0 0.0 0.00 0.00 0.00 94 1015.5
20260906022715 59 189 0.0 0.0 0.00 0.00 0.00 94 1015.5
20260906022210 60 189 0.0 0.0 0.00 0.00 0.00 93 1015.7
20260906021705 60 189 0.0 0.0 0.00 0.00 0.00 93 1015.5
20260906021203 60 189 0.0 0.0 0.00 0.00 0.00 93 1015.3
20260906020658 60 188 0.0 0.0 0.00 0.00 0.00 93 1015.5
20260906020148 60 186 0.0 0.0 0.00 0.00 0.00 93 1015.3
20260906015642 60 182 0.0 0.0 0.00 0.00 0.00 92 1015.4
20260906015140 61 181 0.0 0.0 0.00 0.00 0.00 92 1015.3
20260906014635 61 175 1.0 1.0 0.00 0.00 0.00 92 1015.5
20260906014131 61 189 0.0 0.0 0.00 0.00 0.00 92 1015.3
20260906013627 61 152 0.0 0.0 0.00 0.00 0.00 92 1015.2
20260906013122 61 149 1.0 1.0 0.00 0.00 0.00 92 1015.1
20260906012617 61 155 0.0 0.0 0.00 0.00 0.00 91 1015.1
20260906012117 61 148 0.0 1.0 0.00 0.00 0.00 91 1015.1
20260906011612 61 134 0.0 0.0 0.00 0.00 0.00 91 1015.3
20260906011107 61 157 0.0 0.0 0.00 0.00 0.00 91 1015.2
20260906010603 61 150 0.0 0.0 0.00 0.00 0.00 90 1015.1
20260906010059 61 134 0.0 1.0 0.00 0.00 0.00 90 1015.1
20260906005558 62 118 1.0 1.0 0.00 0.00 0.00 90 1015.0
20260906005056 62 187 0.0 0.0 0.00 0.00 0.00 89 1015.0
20260906004551 62 168 0.0 1.0 0.00 0.00 0.00 89 1014.9
20260906004045 63 191 0.0 0.0 0.00 0.00 0.00 89 1014.8
20260906003540 63 190 0.0 0.0 0.00 0.00 0.00 88 1014.8
20260906003036 63 193 1.0 1.0 0.00 0.00 0.00 88 1014.7
20260906002531 63 153 1.0 1.0 0.00 0.00 0.00 87 1014.6
20260906002025 64 139 1.0 1.0 0.00 0.00 0.00 87 1015.0
20260906001521 64 197 0.0 0.0 0.00 0.00 0.00 86 1014.8
20260906001016 64 197 0.0 0.0 0.00 0.00 0.00 86 1014.7
20260906000512 65 197 0.0 0.0 0.00 0.00 0.00 85 1014.6
20260906000006 65 196 0.0 0.0 0.00 0.00 0.00 84 1014.6
20260905235500 65 196 0.0 0.0 0.00 0.00 0.00 84 1014.7
20260905234955 66 196 0.0 0.0 0.00 0.00 0.00 83 1014.7
20260905234451 66 196 0.0 0.0 0.00 0.00 0.00 82 1014.7
20260905233950 66 196 0.0 0.0 0.00 0.00 0.00 82 1014.7
20260905233446 67 195 0.0 0.0 0.00 0.00 0.00 81 1014.5
20260905232945 67 195 0.0 0.0 0.00 0.00 0.00 80 1014.7
20260905232441 67 146 0.0 0.0 0.00 0.00 0.00 79 1014.7
20260905231937 67 131 1.0 1.0 0.00 0.00 0.00 79 1014.7
20260905231432 68 144 1.0 1.0 0.00 0.00 0.00 78 1014.7
20260905230928 68 146 1.0 1.0 0.00 0.00 0.00 77 1014.7
20260905230427 68 31 3.0 3.0 0.00 0.00 0.00 77 1014.7
20260905225925 68 146 0.0 0.0 0.00 0.00 0.00 77 1014.7
20260905225420 68 138 0.0 0.0 0.00 0.00 0.00 77 1014.6
20260905224915 69 45 3.0 3.0 0.00 0.00 0.00 76 1014.5
20260905224411 69 179 1.0 1.0 0.00 0.00 0.00 76 1014.3
20260905223905 69 86 2.0 2.0 0.00 0.00 0.00 76 1014.6
20260905223403 69 229 1.0 2.0 0.00 0.00 0.00 75 1014.5
20260905222858 69 117 0.0 1.0 0.00 0.00 0.00 75 1014.5
20260905222356 69 87 2.0 2.0 0.00 0.00 0.00 74 1014.7
20260905221852 69 142 0.0 1.0 0.00 0.00 0.00 74 1014.6
20260905221349 70 69 2.0 2.0 0.00 0.00 0.00 73 1014.5
20260905220839 70 235 1.0 2.0 0.00 0.00 0.00 72 1014.3
20260905220335 70 173 1.0 1.0 0.00 0.00 0.00 72 1014.1
20260905215834 70 329 3.0 3.0 0.00 0.00 0.00 72 1014.2
20260905215330 71 315 4.0 5.0 0.00 0.00 0.00 71 1014.1
20260905214826 71 30 3.0 3.0 0.00 0.00 0.00 70 1014.0
20260905214321 71 72 1.0 1.0 0.00 0.00 0.00 70 1013.9
20260905213816 72 26 2.0 2.0 0.00 0.00 0.00 69 1013.8
20260905213312 73 142 1.0 1.0 0.00 0.00 0.00 70 1013.7
20260905212807 73 156 0.0 0.0 0.00 0.00 0.00 71 1013.8
20260905212307 73 297 5.0 6.0 0.00 0.00 0.00 68 1013.8
20260905211801 72 199 1.0 1.0 0.00 0.00 0.00 69 1013.8
20260905211256 73 206 3.0 3.0 0.00 0.00 0.00 69 1013.8
20260905210754 72 258 1.0 1.0 0.00 0.00 0.00 69 1013.9
20260905210253 73 233 1.0 2.0 0.00 0.00 0.00 69 1013.6
20260905205751 72 225 2.0 2.0 0.00 0.00 0.00 68 1013.8
20260905205246 72 136 1.0 1.0 0.00 0.00 0.00 70 1013.5
20260905204746 73 164 1.0 1.0 0.00 0.00 0.00 70 1013.6
20260905204242 73 291 2.0 2.0 0.00 0.00 0.00 69 1013.7
20260905203741 73 196 0.0 1.0 0.00 0.00 0.00 69 1013.6
20260905203237 72 357 1.0 3.0 0.00 0.00 0.00 69 1013.6
20260905202732 72 195 0.0 1.0 0.00 0.00 0.00 69 1013.9
20260905202227 72 185 0.0 1.0 0.00 0.00 0.00 70 1013.8
20260905201722 72 130 1.0 1.0 0.00 0.00 0.00 70 1013.9
20260905201217 72 351 3.0 3.0 0.00 0.00 0.00 69 1013.6
20260905200712 73 45 2.0 2.0 0.00 0.00 0.00 67 1013.6
20260905200208 73 173 1.0 1.0 0.00 0.00 0.00 67 1013.7
20260905195706 73 171 1.0 1.0 0.00 0.00 0.00 68 1013.8
20260905195200 73 161 0.0 0.0 0.00 0.00 0.00 66 1013.7
20260905194650 73 198 1.0 1.0 0.00 0.00 0.00 68 1013.4
20260905194149 72 174 0.0 1.0 0.00 0.00 0.00 68 1013.9
20260905193638 71 169 0.0 0.0 0.00 0.00 0.00 70 1013.7
20260905193133 71 147 1.0 1.0 0.00 0.00 0.00 69 1013.8
20260905192629 72 317 4.0 5.0 0.00 0.00 0.00 67 1013.8
20260905192125 73 0 2.0 3.0 0.00 0.00 0.00 65 1013.5
20260905191625 73 238 2.0 3.0 0.00 0.00 0.00 65 1013.7
20260905191123 74 193 1.0 1.0 0.00 0.00 0.00 68 1013.8
20260905190621 73 131 0.0 0.0 0.00 0.00 0.00 66 1013.7
20260905190120 73 337 2.0 3.0 0.00 0.00 0.00 66 1013.8
20260905185619 73 108 2.0 3.0 0.00 0.00 0.00 65 1013.7
20260905185114 74 271 2.0 2.0 0.00 0.00 0.00 62 1013.7
20260905184609 73 214 3.0 3.0 0.00 0.00 0.00 61 1013.7
20260905184108 73 15 3.0 3.0 0.00 0.00 0.00 63 1013.8
20260905183607 74 228 2.0 2.0 0.00 0.00 0.00 65 1013.7
20260905183103 75 10 2.0 2.0 0.00 0.00 0.00 61 1013.5
20260905182602 74 283 2.0 2.0 0.00 0.00 0.00 63 1013.6
20260905182056 73 64 2.0 3.0 0.00 0.00 0.00 65 1013.4
20260905181551 73 176 0.0 0.0 0.00 0.00 0.00 64 1013.7
20260905181050 73 296 4.0 5.0 0.00 0.00 0.00 62 1013.9
20260905180545 74 292 4.0 6.0 0.00 0.00 0.00 65 1013.7
20260905180041 73 359 2.0 3.0 0.00 0.00 0.00 68 1013.6
20260905175539 73 121 1.0 1.0 0.00 0.00 0.00 68 1013.8
20260905175036 72 7 2.0 2.0 0.00 0.00 0.00 66 1013.8
20260905174531 72 325 3.0 5.0 0.00 0.00 0.00 66 1013.9
20260905174026 72 34 3.0 5.0 0.00 0.00 0.00 65 1013.7
20260905173523 72 207 1.0 2.0 0.00 0.00 0.00 68 1013.6
20260905173018 72 224 1.0 1.0 0.00 0.00 0.00 67 1013.8
20260905172516 72 14 4.0 7.0 0.00 0.00 0.00 66 1013.9
20260905172012 73 323 3.0 5.0 0.00 0.00 0.00 65 1013.8
20260905171508 72 255 5.0 5.0 0.00 0.00 0.00 64 1014.0
20260905171003 72 182 0.0 0.0 0.00 0.00 0.00 69 1014.0
20260905170500 71 97 1.0 2.0 0.00 0.00 0.00 70 1014.1
20260905165954 71 359 2.0 2.0 0.00 0.00 0.00 69 1013.9
20260905165449 72 78 1.0 1.0 0.00 0.00 0.00 70 1014.1
20260905164944 70 229 3.0 5.0 0.00 0.00 0.00 68 1014.2
20260905164444 70 323 4.0 6.0 0.00 0.00 0.00 68 1013.9
20260905163939 71 251 3.0 3.0 0.00 0.00 0.00 70 1014.0
20260905163436 71 216 1.0 1.0 0.00 0.00 0.00 69 1014.1
20260905162931 72 284 6.0 7.0 0.00 0.00 0.00 66 1014.1
20260905162426 72 150 0.0 1.0 0.00 0.00 0.00 67 1013.9
20260905161921 71 12 3.0 5.0 0.00 0.00 0.00 67 1013.9
20260905161420 73 61 3.0 3.0 0.00 0.00 0.00 67 1014.3
20260905160918 72 263 3.0 5.0 0.00 0.00 0.00 67 1014.1
20260905160412 73 315 3.0 5.0 0.00 0.00 0.00 67 1014.2
20260905155906 72 277 5.0 7.0 0.00 0.00 0.00 66 1014.2
20260905155401 71 252 7.0 10.0 0.00 0.00 0.00 68 1014.3
20260905154900 72 102 1.0 2.0 0.00 0.00 0.00 68 1014.3
20260905154356 70 226 1.0 2.0 0.00 0.00 0.00 70 1014.3
20260905153851 70 42 3.0 3.0 0.00 0.00 0.00 69 1014.4
20260905153347 71 216 1.0 1.0 0.00 0.00 0.00 69 1014.5
20260905152847 72 331 2.0 3.0 0.00 0.00 0.00 67 1014.4
20260905152346 70 194 2.0 2.0 0.00 0.00 0.00 71 1014.1
20260905151841 71 226 1.0 3.0 0.00 0.00 0.00 71 1014.4
20260905151337 70 250 3.0 6.0 0.00 0.00 0.00 72 1014.4
20260905150837 70 323 2.0 2.0 0.00 0.00 0.00 72 1014.7
20260905150331 70 255 1.0 2.0 0.00 0.00 0.00 73 1014.7
20260905145828 70 323 5.0 6.0 0.00 0.00 0.00 71 1014.4
20260905145323 70 11 3.0 3.0 0.00 0.00 0.00 72 1014.4
20260905144822 70 191 1.0 1.0 0.00 0.00 0.00 73 1014.4
20260905144318 70 281 3.0 3.0 0.00 0.00 0.00 74 1014.3
20260905143816 68 223 2.0 2.0 0.00 0.00 0.00 76 1014.4
20260905143311 69 252 6.0 7.0 0.00 0.00 0.00 77 1014.3
20260905142810 67 231 2.0 3.0 0.00 0.00 0.00 79 1014.5
20260905142306 67 215 3.0 3.0 0.00 0.00 0.00 80 1014.5
20260905141800 67 191 1.0 2.0 0.00 0.00 0.00 81 1014.6
20260905141255 67 348 3.0 3.0 0.00 0.00 0.00 81 1014.4
20260905140751 69 287 5.0 6.0 0.00 0.00 0.00 79 1014.5
20260905140251 69 208 1.0 2.0 0.00 0.00 0.00 79 1014.3
20260905135749 69 276 3.0 3.0 0.00 0.00 0.00 80 1014.5
20260905135245 68 214 3.0 5.0 0.00 0.00 0.00 81 1014.4
20260905134744 68 39 2.0 3.0 0.00 0.00 0.00 82 1014.6
20260905134239 68 283 3.0 5.0 0.00 0.00 0.00 83 1014.5
20260905133734 66 202 2.0 2.0 0.00 0.00 0.00 85 1014.7
20260905133229 66 279 2.0 3.0 0.00 0.00 0.00 86 1014.5
20260905132728 66 21 4.0 5.0 0.00 0.00 0.00 86 1014.7
20260905132224 65 177 1.0 1.0 0.00 0.00 0.00 90 1014.6
20260905131719 64 178 1.0 1.0 0.00 0.00 0.00 94 1014.2
20260905131214 63 161 1.0 1.0 0.00 0.00 0.00 95 1014.4
20260905130713 63 172 1.0 1.0 0.00 0.00 0.00 95 1014.4
20260905130208 62 135 1.0 1.0 0.00 0.00 0.00 95 1014.4
20260905125703 62 182 1.0 1.0 0.00 0.00 0.00 95 1014.8
20260905125158 62 170 0.0 0.0 0.00 0.00 0.00 95 1014.8
20260905124654 62 170 0.0 0.0 0.00 0.00 0.00 95 1014.7
20260905124150 61 170 0.0 0.0 0.00 0.00 0.00 95 1014.9
20260905123645 61 162 0.0 0.0 0.00 0.00 0.00 95 1015.0
20260905123142 60 185 0.0 0.0 0.00 0.00 0.00 95 1015.1
20260905122641 59 199 1.0 1.0 0.00 0.00 0.00 95 1015.0
20260905122136 59 187 0.0 0.0 0.00 0.00 0.00 95 1015.0
20260905121631 59 200 1.0 1.0 0.00 0.00 0.00 95 1014.9
20260905121127 58 180 0.0 0.0 0.00 0.00 0.00 95 1014.9
20260905120625 58 180 0.0 0.0 0.00 0.00 0.00 95 1014.6
20260905120121 58 205 1.0 1.0 0.00 0.00 0.00 95 1014.6
20260905115620 59 180 0.0 0.0 0.00 0.00 0.00 95 1014.7
20260905115115 59 197 0.0 0.0 0.00 0.00 0.00 95 1014.6
20260905114614 59 164 0.0 0.0 0.00 0.00 0.00 95 1014.3
20260905114113 58 129 0.0 1.0 0.00 0.00 0.00 95 1014.1
20260905113609 58 173 0.0 0.0 0.00 0.00 0.00 95 1014.4
20260905113104 58 155 0.0 0.0 0.00 0.00 0.00 95 1014.5
20260905112558 58 212 0.0 0.0 0.00 0.00 0.00 95 1014.3
20260905112054 58 189 0.0 0.0 0.00 0.00 0.00 95 1014.3
20260905111549 58 114 2.0 2.0 0.00 0.00 0.00 95 1014.2
20260905111048 58 67 1.0 2.0 0.00 0.00 0.00 95 1014.0
20260905110547 58 178 0.0 0.0 0.00 0.00 0.00 95 1014.3
20260905110043 58 189 0.0 0.0 0.00 0.00 0.00 95 1014.4
20260905105542 58 207 0.0 0.0 0.00 0.00 0.00 95 1014.1
20260905105042 57 185 0.0 0.0 0.00 0.00 0.00 95 1013.9
20260905104538 57 199 0.0 0.0 0.00 0.00 0.00 95 1013.8
20260905104037 57 192 0.0 0.0 0.00 0.00 0.00 95 1013.7
20260905103533 57 180 0.0 0.0 0.00 0.00 0.00 95 1013.6
20260905103029 57 200 0.0 0.0 0.00 0.00 0.00 95 1013.7
20260905102524 57 189 0.0 0.0 0.00 0.00 0.00 95 1013.8
20260905102021 57 175 0.0 0.0 0.00 0.00 0.00 95 1013.5
20260905101519 57 182 0.0 0.0 0.00 0.00 0.00 95 1013.8
20260905101017 57 153 0.0 0.0 0.00 0.00 0.00 95 1013.8
20260905100514 56 153 0.0 0.0 0.00 0.00 0.00 95 1013.6
20260905100008 56 152 0.0 0.0 0.00 0.00 0.00 95 1013.5
20260905095503 56 152 0.0 0.0 0.00 0.00 0.00 95 1013.4
20260905094957 56 152 0.0 0.0 0.00 0.00 0.00 95 1013.4
20260905094453 56 152 0.0 0.0 0.00 0.00 0.00 95 1013.3
20260905093951 56 152 0.0 0.0 0.00 0.00 0.00 95 1013.3
20260905093447 56 154 0.0 0.0 0.00 0.00 0.00 95 1013.1
20260905092943 56 153 0.0 0.0 0.00 0.00 0.00 95 1013.5
20260905092438 56 144 0.0 0.0 0.00 0.00 0.00 95 1013.4
20260905091932 56 144 0.0 0.0 0.00 0.00 0.00 95 1013.4
20260905091427 56 144 0.0 0.0 0.00 0.00 0.00 95 1013.4
20260905090926 56 144 0.0 0.0 0.00 0.00 0.00 95 1013.5
20260905090422 56 143 0.0 0.0 0.00 0.00 0.00 95 1013.6
20260905085921 56 142 0.0 0.0 0.00 0.00 0.00 95 1013.5
20260905085420 56 151 0.0 0.0 0.00 0.00 0.00 95 1013.6
20260905084917 56 166 0.0 0.0 0.00 0.00 0.00 95 1013.6
20260905084416 56 148 0.0 0.0 0.00 0.00 0.00 95 1013.5
20260905083911 56 145 0.0 0.0 0.00 0.00 0.00 95 1013.4
20260905083407 56 172 0.0 0.0 0.00 0.00 0.00 95 1013.5
20260905082902 56 171 0.0 0.0 0.00 0.00 0.00 95 1013.4
20260905082358 56 171 0.0 0.0 0.00 0.00 0.00 95 1013.6
20260905081853 56 171 0.0 0.0 0.00 0.00 0.00 95 1013.3
20260905081348 56 171 0.0 0.0 0.00 0.00 0.00 95 1013.5
20260905080846 56 172 0.0 0.0 0.00 0.00 0.00 95 1013.4
20260905080341 57 171 0.0 0.0 0.00 0.00 0.00 95 1013.4
20260905075839 57 172 0.0 0.0 0.00 0.00 0.00 95 1013.7
20260905075334 56 171 0.0 0.0 0.00 0.00 0.00 95 1013.9
20260905074833 57 171 0.0 0.0 0.00 0.00 0.00 95 1013.6
20260905074329 57 182 0.0 0.0 0.00 0.00 0.00 95 1013.7
20260905073825 57 182 0.0 0.0 0.00 0.00 0.00 95 1013.6
20260905073319 57 183 0.0 0.0 0.00 0.00 0.00 95 1013.6
20260905072814 58 182 0.0 0.0 0.00 0.00 0.00 95 1013.6
20260905072309 58 176 0.0 0.0 0.00 0.00 0.00 95 1013.8
20260905071806 58 175 0.0 0.0 0.00 0.00 0.00 95 1013.6
20260905071302 57 175 0.0 0.0 0.00 0.00 0.00 95 1013.6
20260905070756 58 174 0.0 0.0 0.00 0.00 0.00 95 1013.8
20260905070252 58 174 0.0 0.0 0.00 0.00 0.00 95 1013.6
20260905065751 58 174 0.0 0.0 0.00 0.00 0.00 95 1013.9
20260905065244 59 174 0.0 0.0 0.00 0.00 0.00 95 1014.1
20260905064740 59 174 0.0 0.0 0.00 0.00 0.00 95 1014.0
20260905064235 59 193 0.0 0.0 0.00 0.00 0.00 95 1013.5
20260905063728 59 187 0.0 0.0 0.00 0.00 0.00 95 1013.9
20260905063224 59 189 0.0 0.0 0.00 0.00 0.00 95 1014.0
20260905062720 59 188 0.0 0.0 0.00 0.00 0.00 95 1013.9
20260905062220 59 187 0.0 0.0 0.00 0.00 0.00 95 1014.1
20260905061714 59 183 0.0 0.0 0.00 0.00 0.00 95 1014.2
20260905061209 59 183 0.0 0.0 0.00 0.00 0.00 95 1014.3
20260905060704 59 154 0.0 0.0 0.00 0.00 0.00 95 1014.0
20260905060201 59 196 0.0 0.0 0.00 0.00 0.00 95 1014.1
20260905055659 59 196 0.0 0.0 0.00 0.00 0.00 95 1014.1
20260905055154 59 195 0.0 0.0 0.00 0.00 0.00 95 1014.2
20260905054649 59 195 0.0 0.0 0.00 0.00 0.00 95 1014.0
20260905054145 59 195 0.0 0.0 0.00 0.00 0.00 95 1014.1
20260905053645 59 196 0.0 0.0 0.00 0.00 0.00 95 1014.3
20260905053140 59 194 0.0 0.0 0.00 0.00 0.00 95 1014.2
20260905052639 59 178 0.0 0.0 0.00 0.00 0.00 95 1014.2
20260905052135 59 167 0.0 0.0 0.00 0.00 0.00 95 1014.2
20260905051629 59 167 0.0 0.0 0.00 0.00 0.00 95 1014.6
20260905051126 59 166 0.0 0.0 0.00 0.00 0.00 95 1014.2
20260905050622 59 194 0.0 0.0 0.00 0.00 0.00 95 1014.3
20260905050119 59 193 0.0 0.0 0.00 0.00 0.00 95 1014.4
20260905045618 60 186 0.0 0.0 0.00 0.00 0.00 95 1014.4
20260905045113 60 188 0.0 0.0 0.00 0.00 0.00 95 1014.4
20260905044608 60 197 0.0 0.0 0.00 0.00 0.00 95 1014.4
20260905044103 60 157 0.0 0.0 0.00 0.00 0.00 95 1014.5
20260905043601 60 181 0.0 0.0 0.00 0.00 0.00 95 1014.3
20260905043057 60 181 0.0 0.0 0.00 0.00 0.00 95 1014.4
20260905042555 60 181 0.0 0.0 0.00 0.00 0.00 95 1014.5
20260905042051 60 181 0.0 0.0 0.00 0.00 0.00 95 1014.6
20260905041546 60 184 0.0 0.0 0.00 0.00 0.00 95 1014.6